sat.trackr.live / text

‹ back to catalog

EXPRESS 103

NORAD 45985 · 2020-053A

PAYLOAD ACTIVE UNKNOWN

§ Identity

Operator
Country
CIS
Launch date
2020-07-30
Launch site
TYMSC
Launch vehicle
Mass (kg)
RCS (m²)

Purposes: comms

External: N2YO · Heavens-Above · Gunter

§ Orbital elements

Epoch: 2026-05-25T07:37:20.913888Z

Period
1,436.06 min
Inclination
0.0196°
Eccentricity
0.0000476
Mean motion
1.00274435 rev/d
Perigee alt
35,783.8 km
Apogee alt
35,787.9 km
Semi-major
42,164.0 km
B*
0.0000e+0
RAAN
294.7437°
Arg perigee
21.3678°
Mean anomaly
137.6379°
Rev number
2,142

§ Raw data

EXPRESS 1031 45985U 20053A   26145.31760317 -.00000283  00000+0  00000+0 0  99992 45985   0.0196 294.7437 0000476  21.3678 137.6379  1.00274435 21420

JSON: /api/v1/satellites/45985 · /tle

For live sub-satellite position, see the globe view (requires WebGL).

§ Visibility from observer

Set your observer location to see the next 7 days of passes ≥ 10°. The values pass through the URL so the page stays shareable.

No JS? Fill the form by hand. The geolocation button needs JavaScript.